Voltar ao catálogo

FENGYUN 1C DEB

AtivoSSO
NORAD 30500·DEBRIS·🇨🇳 China

Lançado May 10, 1999 de Taiyuan Satellite Launch Center

Loading…

Próximas Passagens (próximas 24 horas)

TLE

AtualizadoSource: Space-Track

Época: Sep 14, 2026, 05:40 UTC

1 30500U 99025AHN 26257.23644172  .00002949  00000-0  11869-2 0  9995
2 30500  99.0738   3.6740 0061231  42.1889 347.9077 14.27846658  6061

Acompanhe FENGYUN 1C DEB em tempo real com AllMySat

Download on the App Store